Weather History for Mountain Home, AR

Change the Weather History Date:

Wednesday, June 26, 2013

  Actual Average (KHRO) Record (KHRO)
Temperature  
Mean Temperature 83 °F 76 °F  
Max Temperature 93 °F 87 °F 102 °F (1954)
Min Temperature 73 °F 65 °F 46 °F (1974)
Degree Days  
Heating Degree Days 0 0  
Month to date heating degree days 3  
Since 1 June heating degree days 3  
Since 1 July heating degree days 4001  
Cooling Degree Days 18 11  
Month to date cooling degree days 220  
Year to date cooling degree days 359  
Since 1 June cooling degree days 220  
Growing Degree Days 33 (Base 50)    
Moisture  
Dew Point 71 °F    
Average Humidity 66    
Maximum Humidity 85    
Minimum Humidity 47    
Precipitation  
Precipitation 0.00 in 0.12 in 1.82 in (1946)
Month to date precipitation 3.74  
Year to date precipitation 21.74  
Snow  
Snow 0.00 in 0.00 in - ()
Month to date snowfall 0.0  
Since 1 June snowfall 0.0  
Since 1 July snowfall 11.5  
Snow Depth -    
Sea Level Pressure  
Sea Level Pressure 29.85 in    
Wind  
Wind Speed 6 mph (SSW)    
Max Wind Speed 10 mph    
Max Gust Speed 20 mph    
Visibility 8 miles    
Events      
T = Trace of Precipitation, MM = Missing Value Source: NWS Daily Summary

Daily Weather History Graph

Daily Weather History Graph

Search for Another Location

Airport:

Trip Planner

Search our weather history database for the weather conditions in past years. The results will help you decide how hot, cold, wet, or windy it might be!

Date:

Astronomy

Jun. 26, 2013 Rise Set
Actual Time 5:53 AM CDT 8:31 PM CDT
Civil Twilight 5:23 AM CDT 9:02 PM CDT
Nautical Twilight 4:45 AM CDT 9:39 PM CDT
Astronomical Twilight 4:03 AM CDT 10:22 PM CDT
Moon 11:03 PM CDT (6/26) 9:39 AM CDT (6/26)
Length of Visible Light 15h 38m
Length of Day
14h 37m
Waning Gibbous, 85% of the Moon is Illuminated
Jun 26
Waning Gibbous
Jun 29
Last Quarter
Jul 8
New
Jul 15
First Quarter
Jul 22
Full

Hourly Weather History & Observations

Time (CDT) Temp. Heat Index Dew Point Humidity Pressure Visibility Wind Dir Wind Speed Gust Speed Precip Events Conditions
12:53 AM 77.0 °F - 68.0 °F 74% 29.88 in 9.0 mi South 6.9 mph - N/A   Clear
1:53 AM 75.9 °F - 69.1 °F 79% 29.86 in 9.0 mi South 5.8 mph - N/A   Clear
2:53 AM 75.9 °F - 69.1 °F 79% 29.84 in 8.0 mi South 5.8 mph - N/A   Clear
3:53 AM 75.0 °F - 69.1 °F 82% 29.83 in 8.0 mi South 3.5 mph - N/A   Clear
4:53 AM 73.9 °F - 69.1 °F 85% 29.84 in 8.0 mi South 4.6 mph - N/A   Clear
5:53 AM 73.9 °F - 69.1 °F 85% 29.85 in 8.0 mi South 4.6 mph - N/A   Clear
6:53 AM 75.0 °F - 69.1 °F 82% 29.86 in 7.0 mi South 4.6 mph - N/A   Clear
7:53 AM 78.1 °F - 70.0 °F 76% 29.86 in 7.0 mi SSW 6.9 mph - N/A   Clear
8:53 AM 80.1 °F 83.2 °F 70.0 °F 71% 29.87 in 8.0 mi SSW 9.2 mph 17.3 mph N/A   Clear
9:53 AM 84.0 °F 88.4 °F 70.0 °F 63% 29.86 in 8.0 mi WSW 9.2 mph 19.6 mph N/A   Clear
10:53 AM 86.0 °F 90.7 °F 70.0 °F 59% 29.86 in 8.0 mi SW 9.2 mph - N/A   Clear
11:53 AM 89.1 °F 94.1 °F 70.0 °F 53% 29.87 in 8.0 mi SW 8.1 mph - N/A   Clear
12:53 PM 91.0 °F 97.6 °F 71.1 °F 52% 29.87 in 8.0 mi SW 8.1 mph 16.1 mph N/A   Clear
1:53 PM 91.0 °F 96.6 °F 70.0 °F 50% 29.85 in 8.0 mi SSW 5.8 mph - N/A   Mostly Cloudy
2:53 PM 93.9 °F 100.8 °F 71.1 °F 47% 29.83 in 8.0 mi SW 10.4 mph 16.1 mph N/A   Partly Cloudy
3:53 PM 93.9 °F 100.8 °F 71.1 °F 47% 29.82 in 8.0 mi SSW 10.4 mph 18.4 mph N/A   Clear
4:53 PM 93.0 °F 100.1 °F 71.1 °F 49% 29.81 in 8.0 mi SW 9.2 mph 19.6 mph N/A   Clear
5:53 PM 93.0 °F 100.7 °F 72.0 °F 50% 29.81 in 8.0 mi Variable 6.9 mph - N/A   Clear
6:53 PM 91.0 °F 99.3 °F 73.0 °F 55% 29.81 in 7.0 mi SW 6.9 mph - N/A   Clear
7:53 PM 87.1 °F 94.5 °F 73.0 °F 63% 29.82 in 7.0 mi SW 5.8 mph - N/A   Clear
8:53 PM 86.0 °F 92.2 °F 72.0 °F 63% 29.83 in 9.0 mi SW 4.6 mph - N/A   Clear
9:53 PM 84.0 °F 89.6 °F 72.0 °F 67% 29.85 in 8.0 mi WSW 3.5 mph - N/A   Clear
10:53 PM 82.0 °F 87.4 °F 73.0 °F 74% 29.87 in 8.0 mi WSW 4.6 mph - N/A   Clear
11:53 PM 81.0 °F 85.2 °F 72.0 °F 74% 29.87 in 8.0 mi West 3.5 mph - N/A   Clear